Weather History for Geneva, Switzerland

Change the Weather History Date:

Friday, December 20, 2013

  Actual Average Record
Temperature  
Mean Temperature 38 °F -  
Max Temperature 42 °F 39 °F 50 °F (2003)
Min Temperature 33 °F 29 °F 24 °F (2001)
Degree Days  
Heating Degree Days 28    
Moisture  
Dew Point 39 °F    
Average Humidity 94    
Maximum Humidity 100    
Minimum Humidity 76    
Precipitation  
Precipitation 0.16 in 0.10 in - ()
Sea Level Pressure  
Sea Level Pressure 30.32 in    
Wind  
Wind Speed 1 mph ()    
Max Wind Speed 5 mph    
Max Gust Speed -    
Visibility 5.6 miles    
Events Fog , Rain    
Averages and records for this station are not official NWS values.
T = Trace of Precipitation, MM = Missing Value Source: Averaged Metar Reports

Daily Weather History Graph

Daily Weather History Graph

Search for Another Location

Airport:

Trip Planner

Search our weather history database for the weather conditions in past years. The results will help you decide how hot, cold, wet, or windy it might be!

Date:

Astronomy

Dec. 20, 2013 Rise Set
Actual Time 8:14 AM CET 4:51 PM CET
Civil Twilight 7:39 AM CET 5:26 PM CET
Nautical Twilight 7:01 AM CET 6:04 PM CET
Astronomical Twilight 6:25 AM CET 6:41 PM CET
Moon 8:06 PM CET (12/20) 9:51 AM CET (12/20)
Length of Visible Light 9h 46m
Length of Day
8h 36m
Waning Gibbous, 92% of the Moon is Illuminated
Dec 20
Waning Gibbous
Dec 25
Last Quarter
Jan 1
New
Jan 8
First Quarter
Jan 16
Full

Hourly Weather History & Observations

Time (CET) Temp. Windchill Dew Point Humidity Pressure Visibility Wind Dir Wind Speed Gust Speed Precip Events Conditions
12:00 AM 43 °F - 42 °F 92% 30.01 in - North 3.5 mph - -  
12:20 AM 41.0 °F - 41.0 °F 100% 29.98 in 3.1 mi Calm Calm - N/A Rain Rain
12:50 AM 41.0 °F - 41.0 °F 100% 29.98 in 5.0 mi Calm Calm - N/A Rain Light Rain
1:00 AM 41 °F - 39 °F 91% 30.03 in 4 mi North 3.5 mph - - Rain Light Rain
1:20 AM 41.0 °F - 41.0 °F 100% 29.98 in 5.0 mi NNE 2.3 mph - N/A Rain Light Rain
1:50 AM 41.0 °F - 41.0 °F 100% 30.01 in 4.3 mi Variable 1.2 mph - N/A Rain Light Rain
2:00 AM 41 °F - 39 °F 89% 30.05 in - NNW 2.3 mph - -  
2:50 AM 39.2 °F - 39.2 °F 100% 30.04 in 4.3 mi Calm Calm - N/A Rain Light Rain
3:00 AM 40 °F - 39 °F 94% 30.08 in - WNW 2.3 mph - -  
3:20 AM 39.2 °F - 39.2 °F 100% 30.04 in 3.1 mi Calm Calm - N/A Rain Rain
3:50 AM 39.2 °F - 39.2 °F 100% 30.04 in 3.7 mi Calm Calm - N/A Rain Light Rain
4:00 AM 40 °F - 39 °F 94% 30.10 in 3 mi WNW 2.3 mph - - Rain Rain
4:20 AM 39.2 °F - 39.2 °F 100% 30.06 in 2.8 mi Calm Calm - N/A Rain Light Rain
4:50 AM 39.2 °F - 39.2 °F 100% 30.06 in 2.5 mi Calm Calm - N/A Rain Light Rain
5:00 AM 40 °F - 39 °F 95% 30.13 in - West 1.2 mph - -  
5:20 AM 39.2 °F - 39.2 °F 100% 30.09 in 3.1 mi Calm Calm - N/A Rain Light Rain
5:50 AM 39.2 °F - 39.2 °F 100% 30.12 in 2.5 mi Calm Calm - N/A Rain Light Rain
6:00 AM 40 °F - 39 °F 97% 30.17 in - West 1.2 mph - -  
6:20 AM 39.2 °F - 39.2 °F 100% 30.12 in 3.1 mi Calm Calm - N/A Rain Light Rain
6:50 AM 39.2 °F - 39.2 °F 100% 30.15 in 3.1 mi Calm Calm - N/A Rain Light Rain
7:00 AM 41 °F - 39 °F 91% 30.21 in 3 mi WNW 2.3 mph - - Rain Light Rain
7:20 AM 41.0 °F - 41.0 °F 100% 30.18 in 3.1 mi West 1.2 mph - N/A Rain Light Rain
7:50 AM 41.0 °F - 41.0 °F 100% 30.18 in 3.7 mi Calm Calm - N/A Rain Light Rain
8:00 AM 41 °F - 38 °F 86% 30.25 in - WNW 4.6 mph - -  
8:20 AM 39.2 °F - 39.2 °F 100% 30.21 in 4.3 mi West 2.3 mph - N/A Rain Rain
8:50 AM 39.2 °F - 39.2 °F 100% 30.24 in 5.6 mi Variable 1.2 mph - N/A Rain Light Rain
9:00 AM 40 °F - 39 °F 94% 30.30 in - SSW 2.3 mph - -  
9:20 AM 39.2 °F - 39.2 °F 100% 30.27 in 5.0 mi Calm Calm - N/A Rain Light Rain
9:50 AM 41.0 °F - 41.0 °F 100% 30.30 in 5.0 mi Variable 1.2 mph - N/A Rain Light Rain
10:00 AM 41 °F - 39 °F 89% 30.34 in 5 mi SSW 3.5 mph - - Rain Light Rain
10:20 AM 41.0 °F 39.0 °F 41.0 °F 100% 30.30 in 5.6 mi Variable 3.5 mph - N/A Rain Light Rain
10:50 AM 41.0 °F - 41.0 °F 100% 30.33 in 6.2 mi Variable 2.3 mph - N/A Rain Light Rain
11:00 AM 41 °F - 39 °F 88% 30.39 in - West 3.5 mph - -  
11:20 AM 41.0 °F - 41.0 °F 100% 30.36 in 6.2 mi Variable 1.2 mph - N/A   Light Drizzle
11:50 AM 41.0 °F - 41.0 °F 100% 30.36 in 6.2 mi Variable 2.3 mph - N/A   Mostly Cloudy
12:00 PM 42 °F - 38 °F 82% 30.41 in - WNW 2.3 mph - -  
12:20 PM 41.0 °F - 41.0 °F 100% 30.36 in 6.2 mi Variable 1.2 mph - N/A   Mostly Cloudy
12:50 PM 42.8 °F - 41.0 °F 93% 30.39 in 6.2 mi Variable 2.3 mph - N/A   Mostly Cloudy
1:00 PM 42 °F - 38 °F 79% 30.42 in 22 mi WNW 3.5 mph - -   Partly Cloudy
1:20 PM 42.8 °F - 39.2 °F 87% 30.39 in 6.2 mi Variable 1.2 mph - N/A   Mostly Cloudy
1:50 PM 42.8 °F - 41.0 °F 93% 30.39 in 6.2 mi Variable 1.2 mph - N/A   Mostly Cloudy
2:00 PM 42 °F - 38 °F 79% 30.44 in - ENE 2.3 mph - -  
2:20 PM 42.8 °F - 41.0 °F 93% 30.39 in 6.2 mi Variable 2.3 mph - N/A   Mostly Cloudy
2:50 PM 42.8 °F - 39.2 °F 87% 30.42 in 6.2 mi Variable 1.2 mph - N/A   Mostly Cloudy
3:00 PM 43 °F - 38 °F 76% 30.46 in - NNW 2.3 mph - -  
3:20 PM 42.8 °F - 39.2 °F 87% 30.42 in 6.2 mi Calm Calm - N/A   Mostly Cloudy
3:50 PM 42.8 °F - 39.2 °F 87% 30.45 in 6.2 mi Variable 1.2 mph - N/A   Mostly Cloudy
4:00 PM 42 °F - 38 °F 83% 30.48 in 22 mi East 3.5 mph - -   Scattered Clouds
4:20 PM 42.8 °F - 39.2 °F 87% 30.45 in 6.2 mi Variable 1.2 mph - N/A   Mostly Cloudy
4:50 PM 41.0 °F - 39.2 °F 93% 30.45 in 6.2 mi Calm Calm - N/A   Mostly Cloudy
5:00 PM 42 °F - 39 °F 83% 30.51 in - NNE 2.3 mph - -  
5:20 PM 41.0 °F - 39.2 °F 93% 30.45 in 6.2 mi Variable 1.2 mph - N/A   Mostly Cloudy
5:50 PM 41.0 °F - 39.2 °F 93% 30.45 in 6.2 mi Calm Calm - N/A   Mostly Cloudy
6:00 PM 40 °F - 38 °F 91% 30.52 in - NNE 2.3 mph - -  
6:20 PM 41.0 °F - 39.2 °F 93% 30.48 in 6.2 mi Variable 1.2 mph - N/A   Mostly Cloudy
6:50 PM 39.2 °F - 39.2 °F 100% 30.48 in 6.2 mi Variable 1.2 mph - N/A   Mostly Cloudy
7:00 PM 41 °F - 38 °F 87% 30.53 in 19 mi North 2.3 mph - -   Scattered Clouds
7:20 PM 39.2 °F - 39.2 °F 100% 30.48 in 6.2 mi Calm Calm - N/A   Partly Cloudy
7:50 PM 37.4 °F - 37.4 °F 100% 30.48 in 6.2 mi Calm Calm - N/A   Partly Cloudy
8:00 PM 38 °F - 37 °F 93% 30.55 in - NNE 2.3 mph - -  
8:20 PM 37.4 °F - 37.4 °F 100% 30.48 in 6.2 mi Calm Calm - N/A Fog Shallow Fog
8:50 PM 37.4 °F - 37.4 °F 100% 30.51 in 6.2 mi Variable 1.2 mph - N/A   Mostly Cloudy
9:00 PM 40 °F - 37 °F 83% 30.55 in - NNW 3.5 mph - -  
9:20 PM 37.4 °F - 37.4 °F 100% 30.51 in 6.2 mi Variable 2.3 mph - N/A   Mostly Cloudy
9:50 PM 37.4 °F - 37.4 °F 100% 30.51 in 6.2 mi Variable 2.3 mph - N/A   Mostly Cloudy
10:00 PM 38 °F - 36 °F 92% 30.56 in 16 mi NNE 1.2 mph - -   Mostly Cloudy
10:20 PM 37.4 °F - 37.4 °F 100% 30.51 in 6.2 mi Calm Calm - N/A   Mostly Cloudy
10:50 PM 35.6 °F - 35.6 °F 100% 30.51 in 6.2 mi Calm Calm - N/A   Mostly Cloudy
11:00 PM 36 °F - 35 °F 94% 30.58 in - WSW 1.2 mph - -  
11:20 PM 33.8 °F - 33.8 °F 100% 30.51 in 6.2 mi Variable 1.2 mph - N/A   Mostly Cloudy
11:50 PM 35.6 °F - 35.6 °F 100% 30.54 in 5.6 mi Calm Calm - N/A Fog Fog